Tracking 23762 objects as of 20-Oct-2021
HD Live streaming from Space Station
objects crossing your sky now

SRMSAT

Track SRMSAT now!
10-day predictions
SRMSAT is classified as:


NORAD ID: 37841
Int'l Code: 2011-058D
Perigee: 855.6 km
Apogee: 872.6 km
Inclination: 20.0 °
Period: 102.1 minutes
Semi major axis: 7235 km
RCS: 0.1933 m2 (medium)
Launch date: October 12, 2011
Source: India (IND)
Launch site: SRIHARIKOTA (SRI)

Uplink (MHz): 145.900
Downlink (MHz): 437.500
Beacon (MHz): 437.425
Mode: CW
Call sign:
Status: Inactive

aabbcc
Your satellite tracking list
Your tracking list is empty




NASA's NSSDC Master Catalog

Two Line Element Set (TLE):
1 37841U 11058D   21292.64994046  .00000321  00000-0  31316-4 0  9990
2 37841  19.9720 270.4245 0011761 217.4155 298.9434 14.10707713517191
Source of the keplerian elements: Caltech